Location: West Cummington
(42.4920°N, 72.9680°W)
Time: 17:02:18
(UTC-05:00)

Cosmos 1703 Rocket - Visible Passes

Search period start: 19 February 2018 00:00
Search period end: 01 March 2018 00:00
Orbit: 607 x 633 km, 82.5° (Epoch: 18 February)

Date Brightness Start Highest point End Pass type
(mag) Time Alt. Az. Time Alt. Az. Time Alt. Az.
19 Feb 5.4 05:51:23 10° SSE 05:55:28 36° E 05:59:35 10° NNE visible
20 Feb 4.0 06:08:30 10° S 06:12:55 69° E 06:17:24 10° NNE visible
20 Feb 5.4 17:54:37 10° NNW 17:58:45 38° W 18:02:49 10° SSW visible
21 Feb 7.1 04:51:34 10° ESE 04:53:13 12° E 04:54:52 10° ENE visible
21 Feb 6.6 18:12:48 10° NW 18:16:07 21° W 18:19:24 10° SW visible
22 Feb 6.3 05:07:05 10° SE 05:10:29 22° E 05:13:54 10° NE visible
22 Feb 7.2 18:32:00 10° WNW 18:33:22 11° W 18:34:45 10° W visible
23 Feb 5.2 05:23:43 10° SSE 05:27:52 39° E 05:32:02 10° NNE visible
24 Feb 3.9 05:40:53 10° S 05:45:20 75° E 05:49:50 10° NNE visible
25 Feb 7.0 04:23:34 10° ESE 04:25:35 13° E 04:27:35 10° ENE visible
25 Feb 3.7 05:58:29 10° SSW 06:02:54 58° W 06:07:21 10° N visible
26 Feb 6.1 04:39:20 10° SE 04:42:52 23° E 04:46:25 10° NE visible
26 Feb 7.4 18:05:02 10° WNW 18:05:44 10° W 18:06:27 10° W visible
27 Feb 4.9 04:56:03 10° SSE 05:00:15 42° E 05:04:30 10° NNE visible
28 Feb 3.7 05:13:16 10° S 05:17:44 81° E 05:22:14 10° N visible
